Overview Statistics Trail Chart Weather Telemetry Raw packets
 

This is the latest recevied weather packets stored in our database for station/object KN6DHD. If no packets are shown the sender has not sent any weather packets the latest 10 day(s).

<< 109 110 111 112 113 114 >>
Time Temp. Humidity Pressure Rain* Wind** Luminosity Snow
1776901769 20° C 55% 1021.9 hPa 0 mm - 555 W/m² -
1776901465 19.44° C 55% 1021.8 hPa 0 mm - 482 W/m² -
1776901161 20° C 55% 1022.1 hPa 0 mm - 462 W/m² -
1776900860 19.44° C 55% 1021.9 hPa 0 mm - 441 W/m² -
1776900558 19.44° C 56% 1022.1 hPa 0 mm - 455 W/m² -
1776900255 19.44° C 55% 1022.1 hPa 0 mm - 344 W/m² -
1776899953 20° C 55% 1022.1 hPa 0 mm - 72 W/m² -
1776899649 19.44° C 55% 1022.1 hPa 0 mm - 76 W/m² -
1776899347 19.44° C 56% 1022.2 hPa 0 mm - 455 W/m² -
1776899043 20° C 53% 1022.4 hPa 0 mm - 465 W/m² -
1776898739 20° C 54% 1022.3 hPa 0 mm - 402 W/m² -
1776898436 19.44° C 56% 1022.4 hPa 0 mm - 542 W/m² -
1776898133 18.89° C 58% 1022.5 hPa 0 mm - 533 W/m² -
1776897830 19.44° C 57% 1022.6 hPa 0 mm - 595 W/m² -
1776897528 18.33° C 62% 1022.6 hPa 0 mm - 583 W/m² -
1776897224 17.78° C 62% 1022.7 hPa 0 mm - 374 W/m² -
1776896922 17.78° C 60% 1022.7 hPa 0 mm - 757 W/m² -
1776896618 18.33° C 60% 1022.7 hPa 0 mm - 148 W/m² -
1776896315 18.89° C 61% 1022.7 hPa 0 mm - 131 W/m² -
1776896011 18.89° C 62% 1022.7 hPa 0 mm - 133 W/m² -
1776895708 18.89° C 60% 1022.8 hPa 0 mm - 465 W/m² -
1776895404 18.33° C 61% 1023.1 hPa 0 mm - 871 W/m² -
1776895101 18.33° C 64% 1022.9 hPa 0 mm - 254 W/m² -
1776894797 17.22° C 67% 1023 hPa 0 mm - 267 W/m² -
1776894495 17.78° C 64% 1023.1 hPa 0 mm - 327 W/m² -

* Rain latest hour (hover to see other rain measurements)
** Current wind speed in m/s (hover to see current wind gust speed)